Regional Weather Roundup
Issued by NWS

Home | Current Version | Previous Version | Graphics & Text | Print | Product List | Glossary On
Versions: 1 2 3 4 5 6 7 8 9 10 11 12 13 14 15 16 17 18 19 20 21 22 23 24 25 26 27 28 29 30 31 32 33 34 35 36 37 38 39 40 41 42 43 44 45 46 47 48 49 50
000
ASUS43 KFSD 232310
RWRSD

WEATHER ROUNDUP FOR SOUTH DAKOTA
NATIONAL WEATHER SERVICE SIOUX FALLS SD
600 PM CDT TUE SEP 23 2014

NOTE: "FAIR" INDICATES FEW OR NO CLOUDS BELOW 12,000 FEET WITH NO
SIGNIFICANT WEATHER AND/OR OBSTRUCTIONS TO VISIBILITY.


SDZ001>005-009-010-012>017-240000-
NORTHWEST AND NORTH CENTRAL SOUTH DAKOTA

CITY           SKY/WX    TMP DP  RH WIND       PRES   REMARKS
BUFFALO          N/A     83  49  30 NW14G22   29.83S
FAITH            N/A     75  58  55 SE9       29.89S
MOBRIDGE       CLOUDY    64  57  78 SE12      29.90F
$$

SDZ012>016-024>037-041>051-057-063-072>074-240000-
SOUTHWEST AND SOUTH CENTRAL SOUTH DAKOTA

CITY           SKY/WX    TMP DP  RH WIND       PRES   REMARKS
RAPID CTY ARPT SUNNY     80  53  39 VRB3      29.92S
PIERRE         MOSUNNY   69  57  65 E15       29.88S
CUSTER         CLOUDY    73  46  38 N9        30.06S
ELLSWORTH AFB  SUNNY     81  54  39 NW3       29.92S
PHILIP         MOSUNNY   79  57  46 NE6       29.87S
PINE RIDGE     PTSUNNY   75  53  46 W7        29.95R
WINNER         FAIR      71  59  65 SE16      29.89S
$$

SDZ004>011-016>023-039-040-240000-
NORTHEAST SOUTH DAKOTA

CITY           SKY/WX    TMP DP  RH WIND       PRES   REMARKS
ABERDEEN       LGT RAIN  58  56  93 SE12      29.99S FOG
WATERTOWN      LGT RAIN  56  54  93 S17G26    30.03R
SISSETON         N/A     61  57  87 S10       30.03S
$$

SDZ017-020-022-023-036>040-048>070-240000-
SOUTHEAST SOUTH DAKOTA

CITY           SKY/WX    TMP DP  RH WIND       PRES   REMARKS
SIOUX FALLS    CLOUDY    62  56  80 S15G22    30.03F
HURON          CLOUDY    58  56  93 SE10G17   29.97F FOG
CHAMBERLAIN    MOSUNNY   64  58  78 SE13G22   29.92S
MITCHELL       CLOUDY    62  59  90 SE14      29.98S
YANKTON        CLOUDY    63  57  82 SE12      30.01F
$$

ABBREVIATIONS USED IN REMARKS
   TC - TEMPERATURE IN CELSIUS
  WCI - WIND CHILL INDEX
   HX - HEAT INDEX
  VSB - VISIBILITY



USA.gov is the U.S. government's official web portal to all federal, state and local government web resources and services.